Other Public Products
Issued by NWS Grand Forks, ND

Home | Current Version | Previous Version | Text Only | Print | Product List | Glossary Off
Versions: 1 2 3 4 5 6 7 8 9 10 11 12 13 14 15 16 17 18 19 20 21 22 23 24 25 26 27 28 29 30 31 32 33 34 35 36 37 38 39 40 41 42 43 44 45 46 47 48 49 50

000
FPUS83 KFGF 211210
OPUFGF
PRAIRIE TO PINES WEATHER ROUNDUP
NATIONAL WEATHER SERVICE EASTERN NORTH DAKOTA/GRAND FORKS ND
600 AM CST TUE FEB 21 2017

 **SATELLITE DATA USED TO AUGMENT SKY COVER AT AUTOMATED STATIONS**
 *****  WEATHER ACROSS EASTERN NORTH DAKOTA  *****

CITY           SKY/WX    TMP DP  RH WIND       PRES   REMARKS
GRAND FORKS    FAIR      32  27  81 E5        29.73F
6HR MIN TEMP:  28; 6HR MAX TEMP:  34;

GRAND FORKS AF MOCLDY    31  30  99 E3        29.73F
GRAND CITY NWS NOT AVBL
BUXTON         NOT AVBL
DEVILS LAKE    FAIR      28  28 100 NE5       29.68F WCI  23
6HR MIN TEMP:  27; 6HR MAX TEMP:  33;

FARGO          FAIR      34  32  92 SE7       29.75F
6HR MIN TEMP:  32; 6HR MAX TEMP:  36;

WAHPETON ARPT  FAIR      32  30  93 SE12      29.75F WCI  23
$$

 *****  WEATHER ACROSS CENTRAL AND WESTERN NORTH DAKOTA  *****

CITY           SKY/WX    TMP DP  RH WIND       PRES   REMARKS
JAMESTOWN      FAIR      36  33  89 S15       29.65F
6HR MIN TEMP:  29; 6HR MAX TEMP:  36;

BISMARCK       FAIR      31  28  89 CALM      29.67R
6HR MIN TEMP:  30; 6HR MAX TEMP:  38;

MINOT          FAIR      32  28  85 CALM      29.63R
6HR MIN TEMP:  31; 6HR MAX TEMP:  42;

MINOT AFB      FAIR      29  27  89 NW3       29.63R
6HR MIN TEMP:  29; 6HR MAX TEMP:  38; 6HR PCP: TRACE;

GARRISON         N/A     31  27  85 CALM      29.64S
6HR MIN TEMP:  29; 6HR MAX TEMP:  38;

WILLISTON      FAIR      31  27  85 SW7       29.65S WCI  24
6HR MIN TEMP:  29; 6HR MAX TEMP:  39;

DICKINSON      FAIR      39  28  64 W12       29.66R
6HR MIN TEMP:  36; 6HR MAX TEMP:  41;

HETTINGER      FAIR      37  30  75 NW8       29.72S
6HR MIN TEMP:  34; 6HR MAX TEMP:  43;

$$

 *****  OTHER OBSERVATIONS NORTHEAST NORTH DAKOTA  *****

CITY           SKY/WX    TMP DP  RH WIND       PRES   REMARKS
WALHALLA       NOT AVBL
LANGDON        NOT AVBL
CAVALIER         N/A     30  30 100 SE3       29.73S FOG
GRAFTON        PTSUNNY   30  30 100 CALM      29.77R FOG
CANDO          NOT AVBL
FORT TOTTEN      N/A     33  33 100 E2        29.95S
ROLLA          CLOUDY    32  32 100 CALM      29.67S
RUGBY            N/A     32  28  86 E12       29.64F WCI  23
 ***** THE ABOVE OBSERVATIONS ARE NON NWS ARE NOT QUALITY
        CONTROLLED AND MAY MIS-REPORT RAIN FOR SNOW...
$$

 *****  OTHER OBSERVATIONS SOUTHEAST NORTH DAKOTA *****

CITY           SKY/WX    TMP DP  RH WIND       PRES   REMARKS
COOPERSTOWN    FAIR      32  32 100 S8        29.69F WCI  25
VALLEY CITY    FAIR      36  36 100 S6        29.71F
OAKES          NOT AVBL
GWINNER        FAIR      37  34  87 S14       29.70F
SHEYENNE NWR     N/A     30  28  91 SE7       29.95S WCI  23
BUFFALO        NOT AVBL
WYNDMERE       NOT AVBL
 ***** THE ABOVE OBSERVATIONS ARE NON NWS ARE NOT QUALITY
       CONTROLLED AND MAY MIS-REPORT RAIN FOR SNOW...
$$

  *****  WEATHER ACROSS NORTHERN MINNESOTA  *****

CITY           SKY/WX    TMP DP  RH WIND       PRES   REMARKS
FLAG ISLAND    CLOUDY    32  30  93 SW6       29.72S
WARROAD        CLOUDY    30  27  86 S3        29.74S FOG
ROSEAU         CLOUDY    30  27  86 CALM      29.75R FOG
HALLOCK        MIX PCPN  34  32  93 CALM      29.73F VSB 1/4
THF RVR FALLS  FAIR      32  31  96 SW9       29.77R FOG     WCI  24
6HR MIN TEMP:  29; 6HR MAX TEMP:  32;

HALSTAD          N/A     33  32  96 S12         N/A  WCI  24
FOSSTON        FAIR      30  30 100 S6        29.77S FOG     WCI  24
BAUDETTE       CLOUDY    31  31 100 CALM      29.74F FOG
6HR MIN TEMP:  31; 6HR MAX TEMP:  34;

WASKISH        FOG       32  32 100 SW5       29.76R VSB 3/4
CROOKSTON      FAIR      32  32 100 CALM      29.76S FOG
$$
  *****  WEATHER ACROSS CENTRAL AND WEST MINNESOTA  *****

CITY           SKY/WX    TMP DP  RH WIND       PRES   REMARKS
BEMIDJI        CLOUDY    30  30 100 S3        29.77R FOG
PARK RAPIDS    FAIR      31  28  89 S3        29.79S FOG
6HR MIN TEMP:  31; 6HR MAX TEMP:  34;

WADENA         FAIR      28  28 100 SE3       29.80F FOG
DETROIT LAKES  FAIR      32  32 100 SE6       29.78F FOG
MOORHEAD       FAIR      32  30  93 SE6       29.77F
FERGUS FALLS   FAIR      34  34 100 SE8       29.82F
ELBOW LAKE     FAIR      33  32  96 E7        29.79F
MORRIS MN      FAIR      34  32  93 SE10      29.80F
STAPLES        FOG       28  28 100 CALM      29.81F VSB 1/2
WHEATON        FAIR      34  30  86 E8        29.79F
$$
  *****  WEATHER ELSEWHERE ACROSS MINNESOTA  *****

CITY           SKY/WX    TMP DP  RH WIND       PRES   REMARKS
DULUTH         CLOUDY    34  33  96 W15       29.79R WCI  24
6HR MIN TEMP:  34; 6HR MAX TEMP:  39;

INTRNTL FALLS  CLOUDY    33  31  92 W5        29.75S
6HR MIN TEMP:  33; 6HR MAX TEMP:  35;

ELY            CLOUDY    34  30  86 W8G18     29.75S
CLOQUET        CLOUDY    34  32  93 SW5       29.81R FOG
BRAINERD       FOG       31  31 100 S7        29.83S VSB 1/4 WCI  24
6HR MIN TEMP:  31; 6HR MAX TEMP:  35;

HIBBING        CLOUDY    32  32 100 VRB3      29.78R FOG
6HR MIN TEMP:  32; 6HR MAX TEMP:  35;

ALEXANDRIA     FAIR      30  30 100 S5        29.82F
6HR MIN TEMP:  30; 6HR MAX TEMP:  34;

SAINT CLOUD    FAIR      31  31 100 SE3       29.85F FOG
6HR MIN TEMP:  29; 6HR MAX TEMP:  37;

MINNEAPOLIS    FAIR      35  33  92 S5        29.90R FOG
6HR MIN TEMP:  34; 6HR MAX TEMP:  41;

$$

  *****  WEATHER ACROSS SOUTH DAKOTA  *****

CITY           SKY/WX    TMP DP  RH WIND       PRES   REMARKS
SIOUX FALLS    FAIR      40  36  86 SW5       29.88F
6HR MIN TEMP:  28; 6HR MAX TEMP:  41;

BROOKINGS      FAIR      35  34  96 S10       29.82F
WATERTOWN      FAIR      34  32  92 S10       29.76F
6HR MIN TEMP:  29; 6HR MAX TEMP:  35;

HURON          FAIR      36  31  82 S14       29.76F
6HR MIN TEMP:  34; 6HR MAX TEMP:  37;

SISSETON         N/A     36  32  85 E8        29.74F
ABERDEEN       FAIR      35  30  82 S10       29.72F
6HR MIN TEMP:  31; 6HR MAX TEMP:  36;

MITCHELL       FAIR      40  31  70 S10       29.81F
PIERRE         FAIR      41  30  65 W9        29.74R
6HR MIN TEMP:  32; 6HR MAX TEMP:  44;

MOBRIDGE       FAIR      37  29  72 SE7       29.69R
RAPID CITY     FAIR      46  30  53 S7        29.78S
6HR MIN TEMP:  46; 6HR MAX TEMP:  60;

$$

  *****  SOME WEATHER IN NEARBY STATES *****

CITY           SKY/WX    TMP DP  RH WIND       PRES   REMARKS
GLASGOW MT     FAIR      35  32  88 MISG      29.65S
6HR MIN TEMP:  33; 6HR MAX TEMP:  40;

GREAT FALLS MT FAIR      39  28  64 S8        29.63F
6HR MIN TEMP:  35; 6HR MAX TEMP:  41;

CHEYENNE WY    FAIR      47  26  44 W26G35    30.01R
6HR MIN TEMP:  34; 6HR MAX TEMP:  51;

SCOTTSBLUFF NE FAIR      31  21  66 CALM      29.93F
6HR MIN TEMP:  29; 6HR MAX TEMP:  47;

OMAHA NE       FOG       36  32  85 CALM      29.97R VSB 1/4
6HR MIN TEMP:  33; 6HR MAX TEMP:  40;

DES MOINES IA  FAIR      39  37  92 S6        29.95F
6HR MIN TEMP:  38; 6HR MAX TEMP:  52;

DAVENPORT IA   FAIR      47  45  93 NW6       29.95S
6HR MIN TEMP:  47; 6HR MAX TEMP:  57; 6HR PCP: TRACE;

CHICAGO IL     LGT RAIN  55  52  89 W5        29.90S
6HR MIN TEMP:  54; 6HR MAX TEMP:  62; 6HR PCP:  0.03;

EAU CLAIRE WI  CLOUDY    38  36  92 W8        29.89S
6HR MIN TEMP:  38; 6HR MAX TEMP:  48;

LA CROSSE WI   CLOUDY    39  36  89 W5        29.93R
6HR MIN TEMP:  38; 6HR MAX TEMP:  53;

$$

  *****  SOME NATIONAL WEATHER *****

CITY           SKY/WX    TMP DP  RH WIND       PRES   REMARKS
LA GUARDIA NY  MOCLDY    37  20  50 E9        30.36F
6HR MIN TEMP:  36; 6HR MAX TEMP:  40;



USA.gov is the U.S. government's official web portal to all federal, state and local government web resources and services.